sat.trackr.live / text

‹ back to catalog

STARLINK-35993

NORAD 66607 · 2025-270V

PAYLOAD ACTIVE UNKNOWN

§ Identity

Operator
Country
US
Launch date
2025-11-22
Launch site
AFETR
Launch vehicle
Mass (kg)
RCS (m²)

Purposes: comms

External: N2YO · Heavens-Above · Gunter

§ Orbital elements

Epoch: 2026-05-24T23:44:40.551072Z

Period
94.27 min
Inclination
43.0037°
Eccentricity
0.0001235
Mean motion
15.27588513 rev/d
Perigee alt
482.2 km
Apogee alt
483.9 km
Semi-major
6,861.2 km
B*
7.8526e-4
RAAN
345.3856°
Arg perigee
277.4225°
Mean anomaly
82.6486°
Rev number
2,927

§ Raw data

STARLINK-359931 66607U 25270V   26144.98935823  .00021415  00000+0  78526-3 0  99982 66607  43.0037 345.3856 0001235 277.4225  82.6486 15.27588513 29277

JSON: /api/v1/satellites/66607 · /tle

For live sub-satellite position, see the globe view (requires WebGL).

§ Visibility from observer

Set your observer location to see the next 7 days of passes ≥ 10°. The values pass through the URL so the page stays shareable.

No JS? Fill the form by hand. The geolocation button needs JavaScript.